Regional Weather Roundup
Issued by NWS

Home | Current Version | Previous Version | Text Only | Print | Product List | Glossary Off
Versions: 1 2 3 4 5 6 7 8 9 10 11 12 13 14 15 16 17 18 19 20 21 22 23 24 25 26 27

000
ASUS45 KBOU 261107
RWRCO

WEATHER ROUNDUP FOR COLORADO
NATIONAL WEATHER SERVICE DENVER/BOULDER CO
500 AM MDT TUE JUL 26 2016

NOTE: "FAIR" INDICATES FEW OR NO CLOUDS BELOW 12000 FEET WITH NO
SIGNIFICANT WEATHER AND/OR OBSTRUCTIONS TO VISIBILITY.

COZ001>005-013-030-031-261200-
...NORTHWEST COLORADO...

CITY           SKY/WX    TMP DP  RH WIND       PRES   REMARKS
CRAIG          FAIR      58  42  55 CALM      30.25R
HAYDEN         FAIR      63  36  36 SE6       30.27S
MEEKER         FAIR      56  43  61 E3        30.26S
MOUNT WERNER   NOT AVBL
STEAMBOAT SPGS FAIR      58  39  48 CALM      30.29F
WALDEN         FAIR      52  32  46 E3        30.39S
$$

COZ006>008-011-261200-
...WEST CENTRAL VALLEYS...

CITY           SKY/WX    TMP DP  RH WIND       PRES   REMARKS
GRAND JUNCTION FAIR      75  43  31 SE10      30.13R
MONTROSE       FAIR      66  46  48 W5        30.24S
EAGLE          FAIR      61  39  44 CALM      30.34R
RIFLE          FAIR      72  40  31 E8        30.20S
DELTA          FAIR      70  46  41 CALM      30.19S
NUCLA          FAIR     N/A N/A N/A E10       30.28S
$$

COZ017>023-064>068-261200-
...SOUTHWEST COLORADO...

CITY           SKY/WX    TMP DP  RH WIND       PRES   REMARKS
DURANGO        MOCLDY    65  48  54 SE6       30.33R
CORTEZ         CLOUDY    70  50  49 VRB5      30.28F
PAGOSA SPRINGS FAIR      62  47  58 CALM      30.41F
TELLURIDE      FAIR      57  42  55 SE5       30.51S
WOLF CREEK PAS CLOUDY    48  37  66 SW10      30.74S
$$

COZ009-010-012-014-032>034-037-058>063-261200-
...CENTRAL COLORADO...

CITY           SKY/WX    TMP DP  RH WIND       PRES   REMARKS
ASPEN          FAIR      56  39  53 S3        30.39F
BUENA VISTA    FAIR      55  42  60 NW3       30.45R
COPPER MTN     FAIR      54  28  37 W5        30.72S
BERTHOUD PASS  FAIR      45  32  61 N14       30.74F
COTTONWOOD PAS FAIR      57  43  58 SE7       30.57S
GUNNISON       FAIR      52  43  71 CALM      30.45R
KREMMLING      FAIR      54  41  62 NE6       30.38S
LEADVILLE      FAIR      43  37  79 NE3       30.57S
MONARCH PASS   FAIR      46  36  66 MISG      30.82S
SALIDA         FAIR      61  49  64 NW7       30.48S
SUNLIGHT       FAIR      61  32  33 CALM      30.64S
WILKERSON PASS FAIR      50  37  62 W8        30.67F
$$

COZ069>075-261200-
...SAN LUIS VALLEY/SANGRE DE CRISTO MOUNTAINS...

CITY           SKY/WX    TMP DP  RH WIND       PRES   REMARKS
ALAMOSA        FAIR      57  51  80 E5        30.38S
LA VETA PASS   FAIR      52  43  71 S9G18     30.54F
SAGUACHE       FAIR      55  43  62 N7        30.43F
$$

COZ035-036-038>040-261200-
...NORTHERN COLORADO FRONT RANGE...

CITY           SKY/WX    TMP DP  RH WIND       PRES   REMARKS
DENVER INTL AP FAIR      69  45  41 SW13      30.14R
DMNS CITY PARK   N/A     67  50  55 NW2       30.14S
AURORA         PTCLDY    69  46  43 S10       30.16S
FRONT RANGE AP NOT AVBL
ERIE MUNI ARPT FAIR      60  51  73 CALM      30.13S
BOULDER MUN AP FAIR      63  48  59 CALM      30.14S
CENTENNIAL     FAIR      69  43  38 SE5       30.18F
BROOMFIELD     FAIR      66  50  55 N12       30.17R
LONGMONT       FAIR      58  51  77 W5        30.15S
$$

COZ041-046-047-076>085-087-088-261200-
...PIKES PEAK/PALMER DIVIDE AND SOUTHERN FOOTHILLS...

CITY           SKY/WX    TMP DP  RH WIND       PRES   REMARKS
COLO. SPRINGS  MOCLDY    60  48  64 N12       30.22F
A. F. ACADEMY  FAIR      70  43  36 W15       30.24F
SCHRIEVER AFB  NOT AVBL
ELLICOTT       FAIR     N/A N/A N/A CALM      30.20F
FALCON         NOT AVBL
FORT CARSON    CLOUDY    62  49  61 N8        30.18S
LIMON          NOT AVBL
MONUMENT HILL  FAIR      59  43  55 SW7       30.30S
TRINIDAD       NOT AVBL
$$

COZ042>045-048>051-090-091-261200-
...NORTHEAST COLORADO...

CITY           SKY/WX    TMP DP  RH WIND       PRES   REMARKS
GREELEY ARPT   FAIR      57  54  88 N6        30.11S
AKRON          FAIR      61  54  77 S14       30.13S
BURLINGTON     CLOUDY    67  64  90 S20       30.15S FOG
WRAY           NOT AVBL
STERLING       FAIR      64  59  82 S8        30.08R
HOLYOKE          N/A     66  63  88 W10       30.12R
FORT MORGAN    FAIR      58  53  83 E7        30.11S
$$

COZ086-089-092>099-261200-
...SOUTHEAST COLORADO...

CITY           SKY/WX    TMP DP  RH WIND       PRES   REMARKS
PUEBLO         FAIR      62  58  86 E9        30.12S
LA JUNTA       FAIR      63  57  81 E6        30.13F
LAMAR          MOCLDY    67  55  65 S7        30.12S
SPRINGFIELD      N/A     62  60  93 CALM      30.17S
$$




USA.gov is the U.S. government's official web portal to all federal, state and local government web resources and services.